Location: Rooftop Observatory
(39.0308°N, 87.1711°W)
Time: 23:34:07
(UTC-05:00)

Daily predictions for brighter satellites

Satellite Brightness Start Highest point End
(mag) Time Altitude Azimuth Time Altitude Azimuth Time Altitude Azimuth
Cosmos 2285 Rocket 4.3 20:28:17 10° N 20:34:28 54° ENE 20:40:40 10° SE
SL-24 R/B - RUBIN 2 4.4 20:29:23 10° SW 20:34:42 79° WNW 20:40:49 10° NNE
Cosmos 2233 Rocket 4.2 20:29:14 10° N 20:35:30 80° W 20:41:41 10° S
Cosmos 1461 4.4 20:34:40 10° N 20:38:15 25° NE 20:41:41 10° ESE
Cosmos 494 Rocket 4.0 20:33:45 10° S 20:38:47 64° ESE 20:43:51 10° NNE
CZ-2C R/B 0.8 20:37:11 10° SSE 20:39:24 45° ENE 20:41:39 10° N
CZ-4 DEB 3.1 20:37:04 10° S 20:40:16 68° WSW 20:43:30 10° NNW
SPOT 5 4.0 20:36:58 10° ESE 20:40:24 22° ENE 20:43:47 10° NNE
Cosmos 2058 Rocket 3.2 20:37:07 10° N 20:41:26 55° E 20:45:42 10° SSE
YAOGAN 11 4.1 20:40:35 10° SSE 20:44:58 89° W 20:49:18 10° NNW
GEOS 3 Rocket 3.8 20:39:50 10° SSE 20:45:06 76° SW 20:50:21 10° NW
Cosmos 1464 Rocket 4.1 20:39:33 10° N 20:45:35 56° E 20:51:37 10° SSE
Cosmos 2237 Rocket 4.0 20:45:15 10° SW 20:50:24 37° WNW 20:55:37 10° N
ALOS 2.9 20:47:36 10° S 20:52:11 58° W 20:56:48 10° NNW
Aureole 2 Rocket 2.7 20:48:53 10° S 20:52:49 57° ESE 20:56:25 10° NNE
deb Chang Zheng 4 3.6 20:50:23 10° NNE 20:54:47 71° ESE 20:59:08 10° S
Cosmos 2278 Rocket 3.6 20:54:08 10° NW 20:59:17 37° WSW 21:04:26 10° S
Cosmos 1606 Rocket 4.5 20:59:37 10° NNW 21:03:54 49° W 21:08:08 10° SSW
Cosmos 2034 Rocket 4.2 20:57:53 10° N 21:04:11 60° E 21:10:24 10° SSE
Cosmos 1331 Rocket 4.2 20:59:20 10° NNW 21:04:31 72° WSW 21:09:39 10° S
ATLAS CENTAUR R/B 4.2 21:03:03 10° WSW 21:07:19 28° NW 21:11:40 10° N
Atlas Centaur 2 3.5 21:01:09 10° SW 21:07:52 36° SSE 21:15:22 10° E
H-2A R/B 2.1 21:05:46 10° SSE 21:10:00 83° WSW 21:14:21 10° NNW
SeaSat 1 2.8 21:07:21 15° SE 21:11:19 50° ENE 21:16:05 10° NNW
Meteor 1-15 Rocket 4.2 21:06:13 10° N 21:11:50 82° E 21:17:29 10° S
Cosmos 2369 Rocket 3.9 21:08:34 10° N 21:12:42 20° NE 21:16:29 11° E
DEBRIS 2.6 21:08:31 10° NW 21:14:03 72° NNE 21:15:33 21° ESE
ARGOS 4.5 21:10:34 14° ESE 21:14:03 25° ENE 21:18:25 10° NNE
Cosmos 1302 Rocket 4.0 21:09:24 10° NNW 21:14:41 82° ENE 21:19:13 14° SSE
Cosmos 1666 2.7 21:12:57 10° N 21:16:53 90° SSW 21:20:23 12° S
PSLV R/B 3.4 21:16:10 21° SE 21:17:57 50° ENE 21:20:59 10° N
SL-16 R/B 3.3 21:12:40 10° SW 21:18:08 49° WNW 21:23:36 10° NNE
CZ-4B R/B 4.0 21:13:59 10° NNE 21:18:45 39° E 21:22:53 14° SSE
Cosmos 1626 Rocket 3.5 21:14:31 10° S 21:18:56 69° E 21:23:21 10° NNE
Cosmos 1939 Rocket 3.0 21:17:36 12° S 21:21:24 85° WSW 21:25:35 10° NNW
Milstar 3 Cent rocket 3.8 21:19:45 10° WSW 21:24:57 20° SSW 21:27:55 13° S
COSMOS 2455 3.0 21:20:02 10° S 21:25:48 52° ESE 21:31:38 10° NE
Cosmos 2228 3.5 21:26:34 10° NNW 21:30:56 61° W 21:35:07 11° S
MetOp-B 4.2 21:28:00 19° SSE 21:31:47 62° ENE 21:37:05 10° N
Lacrosse 5 rocket 4.3 21:29:39 10° WNW 21:32:24 18° NNW 21:35:16 10° NNE
APEX 4.0 21:29:15 10° NNW 21:33:23 63° WSW 21:37:25 17° S
ATLAS 3B R/B 3.4 21:29:07 10° S 21:35:59 37° ESE 21:42:46 10° NE
Centaur D AC-28 3.7 21:41:05 10° SW 21:42:35 12° SSW 21:42:47 12° S
ERS-1 Rocket 4.4 21:38:18 10° SSW 21:42:50 34° W 21:47:24 10° NNW
Cosmos 1515 3.8 21:43:53 31° SSE 21:45:31 58° E 21:49:20 10° NNE
Envisat 3.3 21:42:41 15° S 21:46:49 63° W 21:51:52 10° NNW
Cosmos 1603 3.9 21:41:23 10° SSW 21:46:59 74° WNW 21:52:36 10° NNE
USA 234 3.4 21:45:49 22° ESE 21:50:16 72° NE 21:56:49 10° NW
Cosmos 407 Rocket 4.3 21:49:26 28° SE 21:50:39 31° E 21:55:13 10° NE
Abrixas rocket 3.0 21:47:28 10° WNW 21:50:44 41° SW 21:51:25 36° S
Cosmos 1346 Rocket 3.4 21:56:00 34° E 21:56:10 35° E 21:59:44 10° NNE
Lacrosse 4 Rocket 2.5 21:59:12 26° E 21:59:12 26° E 22:01:51 10° NE
YAOGAN 6 2.6 22:02:20 43° S 22:03:28 80° WSW 22:07:13 10° NNW
USA 81 4.0 22:00:28 10° N 22:05:46 73° E 22:08:02 35° SSE
ISS -3.2 22:04:04 10° WSW 22:07:20 74° NW 22:10:36 10° NE
BREEZE-M DEB (TANK) 3.7 22:04:29 10° WSW 22:07:51 34° NW 22:09:50 10° NE
PSLV R/B 3.4 22:04:41 10° W 22:08:14 79° NNW 22:09:23 40° ENE
Cosmos 1758 Rocket 3.8 22:10:06 43° ESE 22:10:39 46° E 22:14:51 10° NNE
Cosmos 1943 3.1 22:07:21 19° SSW 22:11:29 74° ESE 22:17:10 10° NNE
CZ-4 R/B 3.9 22:07:34 10° NNE 22:12:35 89° ESE 22:15:27 26° SSW
CARTOSAT-1 4.3 22:14:29 35° E 22:15:05 36° ENE 22:19:04 10° N
Cosmos 1461 4.2 22:13:44 10° NW 22:17:27 30° WSW 22:18:39 25° SW
SPOT 5 4.2 22:15:34 16° SSW 22:18:20 30° W 22:22:10 10° NW
Cosmos 1943 Rocket 3.5 22:17:00 10° N 22:21:41 27° ENE 22:23:31 23° E
Landsat 7 3.8 22:23:17 50° SE 22:24:22 67° ENE 22:29:06 10° N
Cosmos 1992 Rocket 4.0 22:21:18 10° NNW 22:26:32 74° WSW 22:28:11 44° S
SL-08 RB Rocket 3.7 22:27:20 51° S 22:28:27 79° WSW 22:33:02 10° NNW
Cosmos 1825 Rocket 4.0 22:26:46 32° SSW 22:28:39 61° W 22:33:04 10° N
H-2A R/B 2.1 22:28:49 47° ESE 22:29:49 57° ENE 22:34:46 10° N
SAR-Lupe-2 3.9 22:30:47 54° NE 22:30:47 54° NE 22:33:59 10° N
Cosmos 1766 3.5 22:30:33 10° N 22:34:21 59° ENE 22:34:21 59° ENE
SPOT 1/Viking Rocket 4.4 22:36:21 28° SSW 22:38:33 43° W 22:43:27 10° NNW
Terra 1.8 22:39:33 60° ESE 22:40:10 68° ENE 22:44:54 10° N
Geosat 4.2 22:36:19 10° NNE 22:41:20 70° WNW 22:44:24 24° SW
Cosmos 1190 Rocket 4.3 22:40:31 26° SW 22:43:31 65° WNW 22:48:49 10° NNE
Nadezhda 4 Rocket 4.4 22:45:00 41° ESE 22:46:01 45° E 22:51:58 10° NNE
SeaSat 1 4.4 22:47:08 16° SW 22:49:02 20° WSW 22:52:37 10° WNW
CZ-4C R/B 4.0 22:48:46 47° WSW 22:49:13 49° W 22:53:15 10° NNW
DMSP B5D2-2 4.0 22:47:13 10° NNE 22:52:32 82° ESE 22:53:28 61° S
ARGOS 4.1 22:52:05 30° SW 22:54:01 41° W 22:59:08 10° NNW
Atlas Centaur 2 3.3 22:49:25 10° WSW 22:57:07 47° S 22:58:15 45° SSE
Cosmos 2369 Rocket 2.4 22:51:35 10° NNW 22:57:09 60° WSW 22:58:16 50° SSW
Cosmos 676 Rocket 4.0 22:58:33 51° SSW 22:59:53 79° WNW 23:05:15 10° NNE
Cosmos 1140 Rocket 3.6 23:09:16 59° E 23:09:16 59° E 23:14:04 10° NNE
Cosmos 1805 4.2 23:05:08 10° N 23:08:04 44° NNE 23:08:04 44° NNE
Cosmos 1953 2.9 23:06:57 10° N 23:10:05 53° N 23:10:05 53° N
Cosmos 2279 Rocket 4.3 23:09:18 10° NNW 23:15:25 58° W 23:17:07 44° SW
IGS 5A 4.4 23:20:24 43° WNW 23:20:24 43° WNW 23:23:56 10° NNW
Cosmos 2263 4.5 23:15:32 10° NNW 23:20:59 53° WSW 23:21:29 51° SW
COSMOS 2406 3.1 23:21:08 70° ESE 23:21:08 70° ESE 23:26:47 10° NNE
Cosmos 2084 4.4 23:22:20 10° NNW 23:25:44 43° NNE 23:25:44 43° NNE
ATLAS 3B R/B 3.7 23:19:05 10° SW 23:26:33 51° NW 23:33:52 10° NNE
Cosmos 1932 4.4 23:27:10 50° SW 23:28:53 79° WNW 23:35:09 10° NNE
Cosmos 2221 4.3 23:29:01 10° NNE 23:31:38 24° NE 23:31:38 24° NE
USA 234 4.2 23:33:09 30° SW 23:33:33 30° SW 23:39:10 10° WNW
Cosmos-2242 4.1 23:31:34 10° NNW 23:35:15 39° WNW 23:35:15 39° WNW
Lacrosse 4 Rocket 3.5 23:35:28 18° W 23:37:01 22° NW 23:40:16 10° N
Cosmos 1607 3.8 23:40:07 74° SE 23:40:12 74° ESE 23:46:26 10° NE
Cosmos 614 Rocket 4.2 23:41:05 62° NE 23:41:05 62° NE 23:45:32 10° NNE
ISS -0.1 23:42:14 10° WNW 23:44:14 15° NNW 23:46:14 10° NNE
Cosmos 2208 Rocket 4.0 23:41:21 10° NNW 23:46:06 75° NNW 23:46:06 75° NNW
CZ-4B R/B 3.9 23:50:52 21° NNE 23:50:52 21° NNE 23:52:32 10° N
